,,,PA_Meas_PMT16A,,PR_Meas_QMR101_102,,RH_Meas_QMH101,,SR_Meas_QMS101,,TA_Meas_QMH101,,GenWind,,GenWind,
date,time,status,PA,status,PR,status,RH,status,SR,status,TA,status,DirAvg,status,SpdAvg,
2009-04-19, 00:00:04,VALID,1004.6,VALID,0,VALID,84.8637,VALID,0.100563,VALID,26.0966,VALID,21,VALID,0.970703,
2009-04-19, 00:01:04,VALID,1004.61,VALID,0,VALID,84.8713,VALID,0,VALID,26.157,VALID,10,VALID,0.685156,
2009-04-19, 00:02:04,VALID,1004.55,VALID,0,VALID,84.8255,VALID,0,VALID,26.1355,VALID,13,VALID,0.55625,
2009-04-19, 00:03:04,VALID,1004.55,VALID,0,VALID,84.7874,VALID,0,VALID,26.1375,VALID,27,VALID,1.27813,
2009-04-19, 00:04:04,VALID,1004.5,VALID,0,VALID,84.5509,VALID,0,VALID,26.1765,VALID,9,VALID,0.637891,
2009-04-19, 00:05:04,VALID,1004.53,VALID,0,VALID,84.5814,VALID,0,VALID,26.2154,VALID,358,VALID,1.19453,
2009-04-19, 00:06:04,VALID,1004.47,VALID,0,VALID,84.4975,VALID,0,VALID,26.2154,VALID,342,VALID,0.642969,
2009-04-19, 00:07:04,VALID,1004.5,VALID,0,VALID,84.4822,VALID,0,VALID,26.2154,VALID,324,VALID,0.488672,
2009-04-19, 00:08:04,VALID,1004.43,VALID,0,VALID,84.6043,VALID,0,VALID,26.1959,VALID,356,VALID,0.599609,
2009-04-19, 00:09:04,VALID,1004.48,VALID,0,VALID,84.6577,VALID,0,VALID,26.1765,VALID,351,VALID,0.685938,
2009-04-19, 00:10:04,VALID,1004.47,VALID,0,VALID,84.6653,VALID,0,VALID,26.157,VALID,349,VALID,0.771484,
2009-04-19, 00:11:04,VALID,1004.46,VALID,0,VALID,84.795,VALID,0,VALID,26.157,VALID,347,VALID,0.835547,
2009-04-19, 00:12:04,VALID,1004.46,VALID,0,VALID,84.7187,VALID,0,VALID,26.1765,VALID,349,VALID,0.694922,
2009-04-19, 00:13:04,VALID,1004.45,VALID,0,VALID,84.7263,VALID,0,VALID,26.1765,VALID,348,VALID,0.586328,
2009-04-19, 00:14:04,VALID,1004.45,VALID,0,VALID,84.7797,VALID,0,VALID,26.157,VALID,351,VALID,0.432422,
2009-04-19, 00:15:04,VALID,1004.46,VALID,0,VALID,84.94,VALID,0,VALID,26.157,VALID,351,VALID,0.579687,
2009-04-19, 00:16:04,VALID,1004.44,VALID,0,VALID,84.9628,VALID,0,VALID,26.118,VALID,320,VALID,0.297266,
2009-04-19, 00:17:04,VALID,1004.43,VALID,0,VALID,85.1307,VALID,0,VALID,26.12,VALID,320,VALID,0.314453,
2009-04-19, 00:18:04,VALID,1004.42,VALID,0,VALID,85.062,VALID,0,VALID,26.0791,VALID,330,VALID,0.407031,
2009-04-19, 00:19:04,VALID,1004.43,VALID,0,VALID,85.2451,VALID,0,VALID,26.0791,VALID,344,VALID,0.361719,
2009-04-19, 00:20:04,VALID,1004.41,VALID,0,VALID,85.3367,VALID,0,VALID,26.0596,VALID,344,VALID,0.382422,
2009-04-19, 00:21:04,VALID,1004.4,VALID,0,VALID,85.3824,VALID,0,VALID,26.0401,VALID,344,VALID,0.260938,
2009-04-19, 00:22:04,VALID,1004.37,VALID,0,VALID,85.6571,VALID,0,VALID,25.9797,VALID,344,VALID,0.416797,
2009-04-19, 00:23:04,VALID,1004.34,VALID,0,VALID,86.0538,VALID,0,VALID,26.0031,VALID,344,VALID,0.338672,
2009-04-19, 00:24:04,VALID,1004.34,VALID,0,VALID,86.4276,VALID,0,VALID,25.9622,VALID,344,VALID,0.396484,
2009-04-19, 00:25:04,VALID,1004.32,VALID,0,VALID,86.687,VALID,0,VALID,25.9038,VALID,344,VALID,0.24375,
2009-04-19, 00:26:04,VALID,1004.31,VALID,0,VALID,86.9235,VALID,0,VALID,25.8453,VALID,344,VALID,0.220313,
2009-04-19, 00:27:04,VALID,1004.3,VALID,0,VALID,87.1828,VALID,0,VALID,25.8064,VALID,344,VALID,0,
2009-04-19, 00:28:04,VALID,1004.29,VALID,0,VALID,87.427,VALID,0,VALID,25.746,VALID,344,VALID,0,
2009-04-19, 00:29:04,VALID,1004.28,VALID,0,VALID,87.7321,VALID,0,VALID,25.748,VALID,344,VALID,0.0519531,
2009-04-19, 00:30:04,VALID,1004.26,VALID,0,VALID,87.9839,VALID,0,VALID,25.7071,VALID,344,VALID,0.275,
2009-04-19, 00:31:04,VALID,1004.25,VALID,0,VALID,88.167,VALID,0,VALID,25.6506,VALID,344,VALID,0.303516,
2009-04-19, 00:32:04,VALID,1004.26,VALID,0,VALID,88.3348,VALID,0,VALID,25.6116,VALID,344,VALID,0.139062,
2009-04-19, 00:33:04,VALID,1004.23,VALID,0,VALID,88.5942,VALID,0,VALID,25.5921,VALID,344,VALID,0,
2009-04-19, 00:34:04,VALID,1004.2,VALID,0,VALID,88.7239,VALID,0,VALID,25.5727,VALID,344,VALID,0,
2009-04-19, 00:35:04,VALID,1004.24,VALID,0,VALID,88.8917,VALID,0,VALID,25.5142,VALID,344,VALID,0.241016,
2009-04-19, 00:36:04,VALID,1004.22,VALID,0,VALID,89.0824,VALID,0,VALID,25.4948,VALID,344,VALID,0.0574219,
2009-04-19, 00:37:04,VALID,1004.21,VALID,0,VALID,89.3494,VALID,0,VALID,25.4753,VALID,344,VALID,0,
2009-04-19, 00:38:04,VALID,1004.22,VALID,0,VALID,89.5097,VALID,0,VALID,25.4558,VALID,344,VALID,0,
2009-04-19, 00:39:04,VALID,1004.22,VALID,0,VALID,89.769,VALID,0,VALID,25.4363,VALID,345,VALID,0.188281,
2009-04-19, 00:40:04,VALID,1004.21,VALID,0,VALID,89.8377,VALID,0,VALID,25.4344,VALID,48,VALID,0.625781,
2009-04-19, 00:41:04,VALID,1004.21,VALID,0,VALID,89.7767,VALID,0,VALID,25.5142,VALID,16,VALID,0.478125,
2009-04-19, 00:42:04,VALID,1004.2,VALID,0,VALID,89.4791,VALID,0,VALID,25.5337,VALID,65,VALID,0.757422,
2009-04-19, 00:43:04,VALID,1004.16,VALID,0,VALID,89.1511,VALID,0.100563,VALID,25.5727,VALID,44,VALID,0.809766,
2009-04-19, 00:44:04,VALID,1004.15,VALID,0,VALID,88.5789,VALID,0,VALID,25.6116,VALID,74,VALID,1.58984,
2009-04-19, 00:45:04,VALID,1004.08,VALID,0,VALID,87.6711,VALID,0,VALID,25.709,VALID,24,VALID,2.36758,
2009-04-19, 00:46:04,VALID,1004.07,VALID,0,VALID,87.4575,VALID,0,VALID,25.7869,VALID,28,VALID,0.969531,
2009-04-19, 00:47:04,VALID,1004.07,VALID,0,VALID,87.2057,VALID,0,VALID,25.7869,VALID,15,VALID,1.46328,
2009-04-19, 00:48:04,VALID,1004.08,VALID,0,VALID,86.9158,VALID,0,VALID,25.8453,VALID,36,VALID,1.05664,
2009-04-19, 00:49:04,VALID,1004.06,VALID,0,VALID,86.7556,VALID,0,VALID,25.8629,VALID,31,VALID,1.20977,
2009-04-19, 00:50:04,VALID,1004.05,VALID,0,VALID,86.7022,VALID,0,VALID,25.8629,VALID,30,VALID,0.622656,
2009-04-19, 00:51:04,VALID,1004.05,VALID,0,VALID,86.7099,VALID,0,VALID,25.9038,VALID,42,VALID,0.569922,
2009-04-19, 00:52:04,VALID,1004.04,VALID,0,VALID,86.7404,VALID,0,VALID,25.8843,VALID,31,VALID,1.08008,
2009-04-19, 00:53:04,VALID,1003.99,VALID,0,VALID,86.8548,VALID,0,VALID,25.8843,VALID,42,VALID,1.09531,
2009-04-19, 00:54:04,VALID,1004.05,VALID,0,VALID,86.8777,VALID,0,VALID,25.8843,VALID,31,VALID,1.31328,
2009-04-19, 00:55:04,VALID,1004,VALID,0,VALID,86.9158,VALID,0,VALID,25.9018,VALID,30,VALID,0.973437,
2009-04-19, 00:56:04,VALID,1003.99,VALID,0,VALID,86.9006,VALID,0,VALID,25.9427,VALID,25,VALID,0.671094,
2009-04-19, 00:57:04,VALID,1003.97,VALID,0,VALID,86.7633,VALID,0,VALID,25.9427,VALID,32,VALID,0.696875,
2009-04-19, 00:58:04,VALID,1003.93,VALID,0,VALID,86.7327,VALID,0.100563,VALID,25.9602,VALID,56,VALID,0.793359,
2009-04-19, 00:59:04,VALID,1003.95,VALID,0,VALID,86.5649,VALID,0,VALID,26.0187,VALID,64,VALID,0.854688,
2009-04-19, 01:00:04,VALID,1003.9,VALID,0,VALID,86.4734,VALID,0,VALID,26.0187,VALID,13,VALID,0.784375,
2009-04-19, 01:01:04,VALID,1003.91,VALID,0,VALID,86.4352,VALID,0,VALID,26.0596,VALID,11,VALID,0.912891,
2009-04-19, 01:02:04,VALID,1003.89,VALID,0,VALID,86.069,VALID,0,VALID,26.0985,VALID,34,VALID,1.87852,
2009-04-19, 01:03:04,VALID,1003.86,VALID,0,VALID,85.8783,VALID,0,VALID,26.118,VALID,30,VALID,1.21367,
2009-04-19, 01:04:04,VALID,1003.83,VALID,0,VALID,85.9088,VALID,0,VALID,26.0791,VALID,18,VALID,1.32656,
2009-04-19, 01:05:04,VALID,1003.8,VALID,0,VALID,85.9851,VALID,0,VALID,26.0596,VALID,37,VALID,1.30625,
2009-04-19, 01:06:04,VALID,1003.76,VALID,0,VALID,86.1529,VALID,0,VALID,26.0206,VALID,20,VALID,1.02344,
2009-04-19, 01:07:04,VALID,1003.72,VALID,0,VALID,86.1911,VALID,0,VALID,26.0012,VALID,1,VALID,0.870313,
2009-04-19, 01:08:04,VALID,1003.68,VALID,0,VALID,86.2674,VALID,0,VALID,25.9817,VALID,27,VALID,0.737109,
2009-04-19, 01:09:04,VALID,1003.71,VALID,0,VALID,86.2521,VALID,0,VALID,25.9602,VALID,36,VALID,1.36367,
2009-04-19, 01:10:04,VALID,1003.68,VALID,0,VALID,86.3971,VALID,0,VALID,25.9427,VALID,46,VALID,0.456641,
2009-04-19, 01:11:04,VALID,1003.67,VALID,0,VALID,86.3971,VALID,0,VALID,25.9232,VALID,58,VALID,0.825391,
2009-04-19, 01:12:04,VALID,1003.65,VALID,0,VALID,86.2216,VALID,0,VALID,25.9038,VALID,42,VALID,1.07852,
2009-04-19, 01:13:04,VALID,1003.64,VALID,0,VALID,86.0614,VALID,0,VALID,25.8843,VALID,24,VALID,0.819141,
2009-04-19, 01:14:04,VALID,1003.61,VALID,0,VALID,86.2979,VALID,0,VALID,25.8843,VALID,27,VALID,0.187109,
2009-04-19, 01:15:04,VALID,1003.6,VALID,0,VALID,86.3589,VALID,0,VALID,25.8648,VALID,84,VALID,0.409375,
2009-04-19, 01:16:04,VALID,1003.57,VALID,0,VALID,84.3144,VALID,0,VALID,25.8064,VALID,22,VALID,1.42461,
2009-04-19, 01:17:04,VALID,1003.55,VALID,0,VALID,83.8338,VALID,0,VALID,25.8843,VALID,325,VALID,0.899609,
2009-04-19, 01:18:04,VALID,1003.53,VALID,0,VALID,81.9189,VALID,0,VALID,25.9232,VALID,45,VALID,1.6875,
2009-04-19, 01:19:04,VALID,1003.5,VALID,0,VALID,81.362,VALID,0,VALID,26.0206,VALID,59,VALID,1.44258,
2009-04-19, 01:20:04,VALID,1003.47,VALID,0,VALID,80.828,VALID,0,VALID,26.0596,VALID,18,VALID,2.05273,
2009-04-19, 01:21:04,VALID,1003.49,VALID,0,VALID,80.9501,VALID,0,VALID,26.0791,VALID,14,VALID,0.728906,
2009-04-19, 01:22:04,VALID,1003.45,VALID,0,VALID,80.9043,VALID,0,VALID,26.0791,VALID,30,VALID,0.758984,
2009-04-19, 01:23:04,VALID,1003.42,VALID,0,VALID,80.6296,VALID,0,VALID,26.0791,VALID,19,VALID,0.721094,
2009-04-19, 01:24:04,VALID,1003.4,VALID,0,VALID,80.8204,VALID,0,VALID,26.0791,VALID,317,VALID,0.454688,
2009-04-19, 01:25:04,VALID,1003.4,VALID,0,VALID,80.5457,VALID,0,VALID,26.0791,VALID,351,VALID,0.507813,
2009-04-19, 01:26:04,VALID,1003.4,VALID,0,VALID,80.7517,VALID,0,VALID,26.0791,VALID,110,VALID,0.436328,
2009-04-19, 01:27:04,VALID,1003.34,VALID,0,VALID,80.2558,VALID,0,VALID,26.0596,VALID,356,VALID,1.08867,
2009-04-19, 01:28:04,VALID,1003.34,VALID,0,VALID,80.4771,VALID,0,VALID,26.0791,VALID,351,VALID,0.231641,
2009-04-19, 01:29:04,VALID,1003.33,VALID,0,VALID,80.5915,VALID,0,VALID,26.0596,VALID,105,VALID,0.992578,
2009-04-19, 01:30:04,VALID,1003.3,VALID,0,VALID,81.1026,VALID,0,VALID,26.0401,VALID,105,VALID,0.132813,
2009-04-19, 01:31:04,VALID,1003.27,VALID,0,VALID,81.1484,VALID,0,VALID,26.0012,VALID,116,VALID,0.466797,
2009-04-19, 01:32:04,VALID,1003.29,VALID,0,VALID,81.7511,VALID,0,VALID,25.9622,VALID,172,VALID,0.446484,
2009-04-19, 01:33:04,VALID,1003.27,VALID,0,VALID,82.5903,VALID,0,VALID,25.9232,VALID,172,VALID,0.159766,
2009-04-19, 01:34:04,VALID,1003.29,VALID,0,VALID,82.9946,VALID,0,VALID,25.8843,VALID,172,VALID,0.0371094,
2009-04-19, 01:35:04,VALID,1003.27,VALID,0,VALID,82.903,VALID,0,VALID,25.8453,VALID,172,VALID,0.353516,
2009-04-19, 01:36:04,VALID,1003.28,VALID,0,VALID,83.2463,VALID,0,VALID,25.8064,VALID,172,VALID,0.277734,
2009-04-19, 01:37:04,VALID,1003.29,VALID,0,VALID,84.4136,VALID,0,VALID,25.7674,VALID,172,VALID,0.485547,
2009-04-19, 01:38:04,VALID,1003.3,VALID,0,VALID,85.123,VALID,0,VALID,25.7285,VALID,178,VALID,0.514063,
2009-04-19, 01:39:04,VALID,1003.3,VALID,0,VALID,86.008,VALID,0,VALID,25.6116,VALID,171,VALID,0.719922,
2009-04-19, 01:40:04,VALID,1003.3,VALID,0,VALID,86.5344,VALID,0,VALID,25.5727,VALID,169,VALID,0.480469,
2009-04-19, 01:41:04,VALID,1003.31,VALID,0,VALID,86.3971,VALID,0,VALID,25.4948,VALID,165,VALID,0.683984,
2009-04-19, 01:42:04,VALID,1003.34,VALID,0,VALID,85.802,VALID,0,VALID,25.4558,VALID,157,VALID,0.719141,
2009-04-19, 01:43:04,VALID,1003.31,VALID,0,VALID,85.6952,VALID,0,VALID,25.376,VALID,135,VALID,0.766406,
2009-04-19, 01:44:04,VALID,1003.31,VALID,0,VALID,86.0614,VALID,0,VALID,25.3565,VALID,139,VALID,0.816016,
2009-04-19, 01:45:04,VALID,1003.3,VALID,0,VALID,85.7715,VALID,0,VALID,25.3176,VALID,151,VALID,0.866016,
2009-04-19, 01:46:04,VALID,1003.27,VALID,0,VALID,85.4969,VALID,0,VALID,25.2981,VALID,145,VALID,0.957422,
2009-04-19, 01:47:04,VALID,1003.24,VALID,0,VALID,85.5274,VALID,0,VALID,25.339,VALID,158,VALID,0.73125,
2009-04-19, 01:48:04,VALID,1003.23,VALID,0,VALID,85.4663,VALID,0,VALID,25.2981,VALID,143,VALID,0.716797,
2009-04-19, 01:49:04,VALID,1003.17,VALID,0,VALID,84.8408,VALID,0,VALID,25.2981,VALID,142,VALID,0.548828,
2009-04-19, 01:50:04,VALID,1003.13,VALID,0,VALID,85.1383,VALID,0,VALID,25.339,VALID,142,VALID,0.209375,
2009-04-19, 01:51:04,VALID,1003.07,VALID,0,VALID,84.9094,VALID,0,VALID,25.3195,VALID,142,VALID,0.0601562,
2009-04-19, 01:52:04,VALID,1003.05,VALID,0,VALID,84.8408,VALID,0,VALID,25.3195,VALID,143,VALID,0.528516,
2009-04-19, 01:53:04,VALID,1003.03,VALID,0,VALID,85.123,VALID,0,VALID,25.3176,VALID,145,VALID,0.498828,
2009-04-19, 01:54:04,VALID,1003.02,VALID,0,VALID,85.1002,VALID,0,VALID,25.3195,VALID,145,VALID,0.106641,
2009-04-19, 01:55:04,VALID,1003.03,VALID,0,VALID,85.6342,VALID,0,VALID,25.3195,VALID,145,VALID,0.117578,
2009-04-19, 01:56:04,VALID,1003.05,VALID,0,VALID,86.5573,VALID,0,VALID,25.3,VALID,51,VALID,0.505469,
2009-04-19, 01:57:04,VALID,1003.09,VALID,0,VALID,86.3894,VALID,0,VALID,25.2611,VALID,50,VALID,0.156641,
2009-04-19, 01:58:04,VALID,1003.14,VALID,0,VALID,86.7709,VALID,0,VALID,25.2221,VALID,50,VALID,0.0148437,
2009-04-19, 01:59:04,VALID,1003.17,VALID,0,VALID,86.9845,VALID,0,VALID,25.1832,VALID,50,VALID,0.258594,
2009-04-19, 02:00:04,VALID,1003.2,VALID,0,VALID,86.9921,VALID,0,VALID,25.1637,VALID,50,VALID,0.157813,
2009-04-19, 02:01:04,VALID,1003.19,VALID,0,VALID,86.9616,VALID,0,VALID,25.1442,VALID,50,VALID,0,
2009-04-19, 02:02:04,VALID,1003.23,VALID,0,VALID,87.4575,VALID,0,VALID,25.1248,VALID,50,VALID,0,
2009-04-19, 02:03:04,VALID,1003.26,VALID,0,VALID,87.5261,VALID,0,VALID,25.045,VALID,50,VALID,0.283984,
2009-04-19, 02:04:04,VALID,1003.3,VALID,0,VALID,87.8466,VALID,0,VALID,25.0663,VALID,50,VALID,0.278906,
2009-04-19, 02:05:04,VALID,1003.29,VALID,0,VALID,88.0831,VALID,0,VALID,25.0079,VALID,50,VALID,0.0191406,
2009-04-19, 02:06:04,VALID,1003.27,VALID,0,VALID,88.3348,VALID,0,VALID,24.969,VALID,50,VALID,0.3,
2009-04-19, 02:07:04,VALID,1003.27,VALID,0,VALID,88.4721,VALID,0,VALID,24.9282,VALID,50,VALID,0.330078,
2009-04-19, 02:08:04,VALID,1003.26,VALID,0,VALID,88.6934,VALID,0,VALID,24.9125,VALID,50,VALID,0.4,
2009-04-19, 02:09:04,VALID,1003.25,VALID,0,VALID,89.1511,VALID,0,VALID,24.893,VALID,50,VALID,0.190234,
2009-04-19, 02:10:04,VALID,1003.26,VALID,0,VALID,89.1816,VALID,0,VALID,24.8522,VALID,50,VALID,0.266406,
2009-04-19, 02:11:04,VALID,1003.25,VALID,0,VALID,89.5631,VALID,0,VALID,24.8327,VALID,50,VALID,0.0535156,
2009-04-19, 02:12:04,VALID,1003.22,VALID,0,VALID,89.9064,VALID,0,VALID,24.8327,VALID,50,VALID,0.104687,
2009-04-19, 02:13:04,VALID,1003.23,VALID,0,VALID,89.9979,VALID,0,VALID,24.8327,VALID,50,VALID,0,
2009-04-19, 02:14:04,VALID,1003.2,VALID,0,VALID,90.0971,VALID,0,VALID,24.8132,VALID,50,VALID,0,
2009-04-19, 02:15:04,VALID,1003.18,VALID,0,VALID,89.8453,VALID,0,VALID,24.7919,VALID,50,VALID,0.3625,
2009-04-19, 02:16:04,VALID,1003.15,VALID,0,VALID,89.9521,VALID,0,VALID,24.8132,VALID,50,VALID,0.203906,
2009-04-19, 02:17:04,VALID,1003.14,VALID,0,VALID,90.0513,VALID,0,VALID,24.8132,VALID,50,VALID,0.210547,
2009-04-19, 02:18:04,VALID,1003.12,VALID,0,VALID,90.0132,VALID,0,VALID,24.8327,VALID,15,VALID,0.0972656,
2009-04-19, 02:19:04,VALID,1003.1,VALID,0,VALID,90.0132,VALID,0,VALID,24.8308,VALID,308,VALID,0.439063,
2009-04-19, 02:20:04,VALID,1003.11,VALID,0,VALID,90.1581,VALID,0,VALID,24.8716,VALID,308,VALID,0,
2009-04-19, 02:21:04,VALID,1003.08,VALID,0,VALID,90.1657,VALID,0,VALID,24.8716,VALID,308,VALID,0.2125,
2009-04-19, 02:22:04,VALID,1003.1,VALID,0,VALID,90.2497,VALID,0,VALID,24.8911,VALID,308,VALID,0,
2009-04-19, 02:23:04,VALID,1003.1,VALID,0,VALID,90.3259,VALID,0,VALID,24.8716,VALID,308,VALID,0,
2009-04-19, 02:24:04,VALID,1003.1,VALID,0,VALID,90.4709,VALID,0,VALID,24.8716,VALID,308,VALID,0,
2009-04-19, 02:25:04,VALID,1003.11,VALID,0,VALID,90.5396,VALID,0,VALID,24.8522,VALID,308,VALID,0,
2009-04-19, 02:26:04,VALID,1003.07,VALID,0,VALID,90.6845,VALID,0,VALID,24.8716,VALID,308,VALID,0,
2009-04-19, 02:27:04,VALID,1003.01,VALID,0,VALID,90.7303,VALID,0,VALID,24.8522,VALID,308,VALID,0.193359,
2009-04-19, 02:28:04,VALID,1003,VALID,0,VALID,90.5396,VALID,0,VALID,24.8308,VALID,308,VALID,0.342578,
2009-04-19, 02:29:04,VALID,1002.96,VALID,0,VALID,90.3717,VALID,0,VALID,24.8308,VALID,308,VALID,0.0941406,
2009-04-19, 02:30:04,VALID,1002.94,VALID,0,VALID,90.4938,VALID,0,VALID,24.8522,VALID,310,VALID,0.303125,
2009-04-19, 02:31:04,VALID,1002.93,VALID,0,VALID,90.5548,VALID,0,VALID,24.8522,VALID,310,VALID,0.00234375,
2009-04-19, 02:32:04,VALID,1002.93,VALID,0,VALID,90.6692,VALID,0,VALID,24.8735,VALID,310,VALID,0,
2009-04-19, 02:33:04,VALID,1002.93,VALID,0,VALID,90.7684,VALID,0.100563,VALID,24.8522,VALID,320,VALID,0.306641,
2009-04-19, 02:34:04,VALID,1003,VALID,0,VALID,90.8523,VALID,0,VALID,24.8327,VALID,348,VALID,0.7625,
2009-04-19, 02:35:04,VALID,1002.99,VALID,0,VALID,90.8829,VALID,0,VALID,24.7919,VALID,349,VALID,0.260156,
2009-04-19, 02:36:04,VALID,1003.01,VALID,0,VALID,90.9515,VALID,0,VALID,24.8132,VALID,350,VALID,0.0339844,
2009-04-19, 02:37:04,VALID,1003,VALID,0,VALID,90.8066,VALID,0,VALID,24.8132,VALID,355,VALID,0.481641,
2009-04-19, 02:38:04,VALID,1003.02,VALID,0,VALID,90.7989,VALID,0,VALID,24.8132,VALID,329,VALID,0.427734,
2009-04-19, 02:39:04,VALID,1003.04,VALID,0,VALID,90.8218,VALID,0,VALID,24.8327,VALID,71,VALID,0.0589844,
2009-04-19, 02:40:04,VALID,1003.02,VALID,0,VALID,90.8447,VALID,0,VALID,24.8113,VALID,63,VALID,0.428516,
2009-04-19, 02:41:04,VALID,1002.98,VALID,0,VALID,90.7608,VALID,0,VALID,24.8113,VALID,82,VALID,0.439844,
2009-04-19, 02:42:04,VALID,1003.03,VALID,0,VALID,90.4862,VALID,0,VALID,24.8892,VALID,46,VALID,0.319141,
2009-04-19, 02:43:04,VALID,1003.02,VALID,0,VALID,90.1429,VALID,0.100563,VALID,24.969,VALID,49,VALID,0.281641,
2009-04-19, 02:44:04,VALID,1003.03,VALID,0,VALID,89.7004,VALID,0,VALID,25.0469,VALID,65,VALID,0.366406,
2009-04-19, 02:45:04,VALID,1003.02,VALID,0,VALID,89.1206,VALID,0,VALID,25.1637,VALID,100,VALID,0.523438,
2009-04-19, 02:46:04,VALID,1003.03,VALID,0,VALID,88.556,VALID,0,VALID,25.2416,VALID,117,VALID,0.808203,
2009-04-19, 02:47:04,VALID,1003.05,VALID,0,VALID,88.2433,VALID,0,VALID,25.2806,VALID,117,VALID,0.294531,
2009-04-19, 02:48:04,VALID,1003.02,VALID,0,VALID,88.3577,VALID,0,VALID,25.3195,VALID,117,VALID,0.164063,
2009-04-19, 02:49:04,VALID,1003.02,VALID,0,VALID,88.3882,VALID,0,VALID,25.3195,VALID,132,VALID,0.620313,
2009-04-19, 02:50:04,VALID,1003.03,VALID,0,VALID,88.1517,VALID,0,VALID,25.2611,VALID,160,VALID,1.0293,
2009-04-19, 02:51:04,VALID,1003.03,VALID,0,VALID,88.2127,VALID,0,VALID,25.1832,VALID,164,VALID,1.4332,
2009-04-19, 02:52:04,VALID,1003.01,VALID,0,VALID,88.3958,VALID,0,VALID,25.1248,VALID,172,VALID,1.31484,
2009-04-19, 02:53:04,VALID,1002.99,VALID,0,VALID,88.6247,VALID,0,VALID,25.0663,VALID,184,VALID,0.962891,
2009-04-19, 02:54:04,VALID,1002.99,VALID,0,VALID,88.7391,VALID,0,VALID,25.0079,VALID,173,VALID,0.962891,
2009-04-19, 02:55:04,VALID,1002.99,VALID,0,VALID,88.8993,VALID,0,VALID,24.9671,VALID,177,VALID,0.592188,
2009-04-19, 02:56:04,VALID,1002.98,VALID,0,VALID,89.174,VALID,0,VALID,24.9476,VALID,178,VALID,0.300391,
2009-04-19, 02:57:04,VALID,1002.99,VALID,0,VALID,89.2426,VALID,0,VALID,24.93,VALID,160,VALID,0.588672,
2009-04-19, 02:58:04,VALID,1002.97,VALID,0,VALID,89.1664,VALID,0,VALID,24.8911,VALID,113,VALID,0.466797,
2009-04-19, 02:59:04,VALID,1002.97,VALID,0,VALID,89.3266,VALID,0,VALID,24.8911,VALID,115,VALID,0.630859,
2009-04-19, 03:00:04,VALID,1002.98,VALID,0,VALID,89.0748,VALID,0,VALID,24.8716,VALID,97,VALID,1.18359,
2009-04-19, 03:01:04,VALID,1003,VALID,0,VALID,89.1358,VALID,0,VALID,24.8716,VALID,71,VALID,0.678906,
2009-04-19, 03:02:04,VALID,1002.95,VALID,0,VALID,89.2121,VALID,0,VALID,24.8503,VALID,98,VALID,0.904297,
2009-04-19, 03:03:04,VALID,1002.99,VALID,0,VALID,89.2884,VALID,0,VALID,24.8716,VALID,97,VALID,0.961328,
2009-04-19, 03:04:04,VALID,1002.96,VALID,0,VALID,89.2503,VALID,0,VALID,24.8522,VALID,105,VALID,0.923828,
2009-04-19, 03:05:04,VALID,1002.98,VALID,0,VALID,89.2503,VALID,0,VALID,24.8113,VALID,94,VALID,1.36172,
2009-04-19, 03:06:04,VALID,1003.02,VALID,0,VALID,89.2274,VALID,0,VALID,24.8327,VALID,100,VALID,1.28711,
2009-04-19, 03:07:04,VALID,1003.01,VALID,0,VALID,89.0367,VALID,0,VALID,24.8113,VALID,97,VALID,1.96289,
2009-04-19, 03:08:04,VALID,1003.02,VALID,0,VALID,88.8612,VALID,0,VALID,24.8308,VALID,79,VALID,1.01055,
2009-04-19, 03:09:04,VALID,1003.01,VALID,0,VALID,88.5866,VALID,0,VALID,24.8132,VALID,81,VALID,1.86797,
2009-04-19, 03:10:04,VALID,1003.04,VALID,0,VALID,88.5255,VALID,0,VALID,24.7724,VALID,88,VALID,1.37773,
2009-04-19, 03:11:04,VALID,1003.08,VALID,0,VALID,88.5332,VALID,0,VALID,24.7529,VALID,87,VALID,0.985547,
2009-04-19, 03:12:04,VALID,1003.08,VALID,0,VALID,88.6171,VALID,0,VALID,24.7353,VALID,99,VALID,1.40781,
2009-04-19, 03:13:05,VALID,1003.14,VALID,0,VALID,88.6934,VALID,0,VALID,24.6945,VALID,94,VALID,1.0418,
2009-04-19, 03:14:05,VALID,1003.12,VALID,0,VALID,88.8841,VALID,0,VALID,24.7159,VALID,102,VALID,0.828516,
2009-04-19, 03:15:05,VALID,1003.15,VALID,0,VALID,89.0367,VALID,0,VALID,24.6964,VALID,65,VALID,1.66445,
2009-04-19, 03:16:05,VALID,1003.14,VALID,0,VALID,89.1816,VALID,0,VALID,24.7353,VALID,102,VALID,1.52305,
2009-04-19, 03:17:05,VALID,1003.14,VALID,0,VALID,89.1435,VALID,0,VALID,24.7335,VALID,67,VALID,0.565234,
2009-04-19, 03:18:05,VALID,1003.15,VALID,0,VALID,89.1435,VALID,0,VALID,24.7353,VALID,86,VALID,1.41172,
2009-04-19, 03:19:05,VALID,1003.13,VALID,0,VALID,89.2732,VALID,0,VALID,24.714,VALID,104,VALID,1.62344,
2009-04-19, 03:20:05,VALID,1003.1,VALID,0,VALID,89.3342,VALID,0,VALID,24.7548,VALID,107,VALID,1.44727,
2009-04-19, 03:21:05,VALID,1003.12,VALID,0,VALID,89.4181,VALID,0,VALID,24.7353,VALID,98,VALID,1.18867,
2009-04-19, 03:22:05,VALID,1003.09,VALID,0,VALID,89.5402,VALID,0,VALID,24.7159,VALID,103,VALID,1.78477,
2009-04-19, 03:23:05,VALID,1003.06,VALID,0,VALID,89.4944,VALID,0,VALID,24.714,VALID,96,VALID,1.6332,
2009-04-19, 03:24:05,VALID,1003.08,VALID,0,VALID,89.647,VALID,0,VALID,24.6945,VALID,122,VALID,1.93594,
2009-04-19, 03:25:05,VALID,1003.11,VALID,0,VALID,89.7309,VALID,0,VALID,24.6964,VALID,89,VALID,1.60898,
2009-04-19, 03:26:05,VALID,1003.08,VALID,0,VALID,89.8224,VALID,0,VALID,24.6769,VALID,105,VALID,0.998438,
2009-04-19, 03:27:05,VALID,1003.11,VALID,0,VALID,89.8148,VALID,0,VALID,24.6574,VALID,105,VALID,1.05703,
2009-04-19, 03:28:05,VALID,1003.1,VALID,0,VALID,89.853,VALID,0,VALID,24.6574,VALID,71,VALID,0.561719,
2009-04-19, 03:29:05,VALID,1003.1,VALID,0,VALID,89.914,VALID,0,VALID,24.6574,VALID,98,VALID,0.463672,
2009-04-19, 03:30:05,VALID,1003.11,VALID,0,VALID,89.9674,VALID,0,VALID,24.6166,VALID,114,VALID,0.985156,
2009-04-19, 03:31:05,VALID,1003.13,VALID,0,VALID,90.0437,VALID,0,VALID,24.5972,VALID,125,VALID,0.942187,
2009-04-19, 03:32:05,VALID,1003.15,VALID,0,VALID,90.0971,VALID,0,VALID,24.6185,VALID,108,VALID,0.860937,
2009-04-19, 03:33:05,VALID,1003.15,VALID,0,VALID,90.1734,VALID,0,VALID,24.6185,VALID,119,VALID,0.941797,
2009-04-19, 03:34:05,VALID,1003.16,VALID,0,VALID,90.0971,VALID,0,VALID,24.5777,VALID,101,VALID,1.01055,
2009-04-19, 03:35:05,VALID,1003.16,VALID,0,VALID,90.0437,VALID,0,VALID,24.5777,VALID,110,VALID,1.22656,
2009-04-19, 03:36:05,VALID,1003.16,VALID,0,VALID,90.0132,VALID,0,VALID,24.599,VALID,61,VALID,1.6418,
2009-04-19, 03:37:05,VALID,1003.15,VALID,0,VALID,90.0284,VALID,0,VALID,24.599,VALID,98,VALID,1.09687,
2009-04-19, 03:38:05,VALID,1003.14,VALID,0,VALID,90.12,VALID,0,VALID,24.5972,VALID,62,VALID,0.571484,
2009-04-19, 03:39:05,VALID,1003.11,VALID,0,VALID,90.1581,VALID,0,VALID,24.5777,VALID,86,VALID,1.62734,
2009-04-19, 03:40:05,VALID,1003.17,VALID,0,VALID,90.2039,VALID,0,VALID,24.5777,VALID,96,VALID,0.896484,
2009-04-19, 03:41:05,VALID,1003.18,VALID,0,VALID,90.242,VALID,0,VALID,24.5777,VALID,89,VALID,1.35234,
2009-04-19, 03:42:05,VALID,1003.16,VALID,0,VALID,90.2878,VALID,0,VALID,24.638,VALID,28,VALID,0.986328,
2009-04-19, 03:43:05,VALID,1003.11,VALID,0,VALID,90.3717,VALID,0,VALID,24.638,VALID,23,VALID,1.42813,
2009-04-19, 03:44:05,VALID,1003.12,VALID,0,VALID,90.3183,VALID,0,VALID,24.6574,VALID,21,VALID,1.16602,
2009-04-19, 03:45:05,VALID,1003.11,VALID,0,VALID,90.2878,VALID,0,VALID,24.6574,VALID,76,VALID,1.01719,
2009-04-19, 03:46:05,VALID,1003.13,VALID,0,VALID,90.2878,VALID,0,VALID,24.6556,VALID,58,VALID,0.861328,